Location: Ferchesar
(52.6477°N, 12.4298°E)
Time: 13:14:38
(UTC+01:00)

Altair - Pass Details

Date: 15 December 2021
Orbit: 1501 x 1683 km, 47.2° (Epoch: 20 January)

Event Time Altitude Azimuth Distance (km) Brightness Sun altitude
Rises 17:55:30 0° 282° (WNW) 4,758 11.2 -16.8°
Reaches altitude 10° 17:58:48 10° 276° (W) 3,748 10.6 -17.3°
Maximum altitude 18:07:27 43° 209° (SSW) 2,026 8.4 -18.6°
Drops below altitude 10° 18:15:54 10° 142° (SE) 3,651 9.2 -19.8°
Sets 18:19:04 0° 136° (SE) 4,625 9.7 -20.3°
